Lanai City, HI

2:06 AM HST on April 24, 2017 (GMT -1000)
Lanai City

Weather History for PHNY - May, 2013

Change the Weather History Date:

Wednesday, May 15, 2013

  Actual Average Record
Temperature  
Mean Temperature 72 °F -  
Max Temperature 80 °F 78 °F 82 °F (1991)
Min Temperature 65 °F 63 °F 58 °F (1951)
Cooling Degree Days 8    
Growing Degree Days 22 (Base 50)    
Moisture  
Dew Point 66 °F    
Average Humidity 74    
Maximum Humidity 93    
Minimum Humidity 58    
Precipitation  
Precipitation 0.00 in - - ()
Sea Level Pressure  
Sea Level Pressure 30.12 in    
Wind  
Wind Speed 7 mph (NNE)    
Max Wind Speed 17 mph    
Max Gust Speed -    
Visibility 10 miles    
Events      
Averages and records for this station are not official NWS values.
T = Trace of Precipitation, MM = Missing Value Source: NWS Daily Summary

Daily Weather History Graph

Daily Weather History Graph

Search for Another Location

Airport or City:

Trip Planner

Search our weather history database for the weather conditions in past years. The results will help you decide how hot, cold, wet, or windy it might be!

Date:

Astronomy

May. 15, 2013 Rise Set
Actual Time 5:50 AM HST 6:58 PM HST
Civil Twilight 5:26 AM HST 7:22 PM HST
Nautical Twilight 4:58 AM HST 7:50 PM HST
Astronomical Twilight 4:29 AM HST 8:19 PM HST
Moon 10:28 AM HST (5/15) 11:37 PM HST (5/15)
Length of Visible Light 13h 55m
Length of Day
13h 07m
Waxing Crescent, 29% of the Moon is Illuminated
May 15
Waxing Crescent
May 17
First Quarter
May 24
Full
May 31
Last Quarter
Jun 8
New

Hourly Weather History & Observations

Time (HST) Temp. Heat Index Dew Point Humidity Pressure Visibility Wind Dir Wind Speed Gust Speed Precip Events Conditions
12:56 AM 68.9 °F - 65.8 °F 90% 30.09 in 10.0 mi NNE 9.2 mph - N/A   Clear
1:56 AM 68.0 °F - 64.9 °F 90% 30.07 in 10.0 mi ENE 4.6 mph - N/A   Clear
2:56 AM 65.8 °F - 63.9 °F 93% 30.07 in 10.0 mi East 4.6 mph - N/A   Clear
3:56 AM 66.9 °F - 64.9 °F 93% 30.06 in 10.0 mi NE 6.9 mph - N/A   Clear
4:56 AM 66.9 °F - 64.9 °F 93% 30.06 in 10.0 mi ENE 5.8 mph - N/A   Clear
5:56 AM 65.8 °F - 63.9 °F 93% 30.07 in 10.0 mi East 6.9 mph - N/A   Clear
6:56 AM 68.9 °F - 65.8 °F 90% 30.10 in 10.0 mi ENE 4.6 mph - N/A   Mostly Cloudy
7:56 AM 75.2 °F - 64.4 °F 69% 30.17 in 10.0 mi Variable 3.5 mph - N/A   Partly Cloudy
8:11 AM 75.2 °F - 66.2 °F 73% 30.18 in 10.0 mi Variable 5.8 mph - N/A   Mostly Cloudy
8:56 AM 79.0 °F - 65.8 °F 64% 30.12 in 10.0 mi West 6.9 mph - N/A   Mostly Cloudy
9:26 AM 75.2 °F - 64.4 °F 69% 30.18 in 10.0 mi WSW 6.9 mph - N/A   Mostly Cloudy
9:56 AM 79.0 °F - 63.9 °F 60% 30.12 in 10.0 mi Variable 4.6 mph - N/A   Mostly Cloudy
10:23 AM 77.0 °F - 64.4 °F 65% 30.18 in 10.0 mi West 5.8 mph - N/A   Mostly Cloudy
10:56 AM 80.6 °F 82.3 °F 64.4 °F 58% 30.17 in 10.0 mi SSE 5.8 mph - N/A   Mostly Cloudy
11:11 AM 80.6 °F 82.7 °F 66.2 °F 61% 30.17 in 10.0 mi WSW 5.8 mph - N/A   Mostly Cloudy
11:56 AM 77.9 °F - 66.9 °F 69% 30.10 in 10.0 mi NNE 12.7 mph - N/A   Mostly Cloudy
12:04 PM 78.8 °F - 66.2 °F 65% 30.16 in 10.0 mi NNE 12.7 mph - N/A   Mostly Cloudy
12:48 PM 78.8 °F - 66.2 °F 65% 30.15 in 10.0 mi SSW 8.1 mph - N/A   Mostly Cloudy
12:56 PM 77.9 °F - 66.9 °F 69% 30.09 in 10.0 mi SW 4.6 mph - N/A   Mostly Cloudy
1:46 PM 78.8 °F - 66.2 °F 65% 30.14 in 10.0 mi Variable 6.9 mph - N/A   Mostly Cloudy
1:56 PM 78.8 °F - 66.2 °F 65% 30.14 in 10.0 mi SW 8.1 mph - N/A   Overcast
2:24 PM 78.8 °F - 66.2 °F 65% 30.14 in 10.0 mi NW 5.8 mph - N/A   Mostly Cloudy
2:56 PM 79.9 °F - 65.8 °F 62% 30.08 in 10.0 mi WNW 8.1 mph - N/A   Mostly Cloudy
3:07 PM 78.8 °F - 66.2 °F 65% 30.13 in 10.0 mi NNE 8.1 mph - N/A   Mostly Cloudy
3:56 PM 75.9 °F - 65.8 °F 71% 30.07 in 10.0 mi NW 8.1 mph - N/A   Overcast
4:19 PM 78.8 °F - 66.2 °F 65% 30.12 in 10.0 mi NNE 13.8 mph - N/A   Mostly Cloudy
4:56 PM 79.0 °F - 66.9 °F 66% 30.07 in 10.0 mi NE 15.0 mph - N/A   Clear
5:56 PM 75.9 °F - 66.9 °F 74% 30.09 in 10.0 mi NE 17.3 mph - N/A   Clear
6:56 PM 72.0 °F - 65.8 °F 81% 30.10 in 10.0 mi NNE 9.2 mph - N/A   Clear
7:56 PM 70.9 °F - 65.8 °F 84% 30.11 in 10.0 mi NNE 9.2 mph - N/A   Clear
8:56 PM 70.9 °F - 65.8 °F 84% 30.12 in 10.0 mi NNE 10.4 mph - N/A   Scattered Clouds
9:56 PM 68.9 °F - 63.9 °F 84% 30.13 in 10.0 mi NE 5.8 mph - N/A   Clear
10:56 PM 69.8 °F - 64.4 °F 83% 30.20 in 10.0 mi NE 9.2 mph - N/A   Mostly Cloudy
11:56 PM 68.9 °F - 64.9 °F 87% 30.12 in 10.0 mi ENE 6.9 mph - N/A   Clear